User: anonymous   Login
Location: NJAA Observatory
(40.6819°N, 74.8979°W)
Time: 22:48:16
(UTC-04:00)
Language:

Landsat 5 - Orbit

View from above orbital plane
View from above orbital plane
View from above satellite
View from above satellite

Ground track
Ground track

The orbit data is extracted from the following two-line orbital elements,

1 14780U 84021A   18169.45000865 +.00000018 +00000-0 +78086-5 0  9991
2 14780 098.0741 294.3045 0091482 044.4498 316.4014 14.91739058830473
Epoch (UTC): 18 June 2018 10:48:00
Eccentricity: 0.0091482
inclination: 98.0741°
perigee height: 529 km
apogee height: 656 km
right ascension of ascending node: 294.3045°
argument of perigee: 44.4498°
revolutions per day: 14.91739058
mean anomaly at epoch: 316.4014°
orbit number at epoch: 83047

The dashed part of the orbit path shows where the satellite is in the earth's shadow,  

DLR